Location: *
(38.4303°S, 157.0822°W)
Time: 23:04:14
(UTC+00:00)

SKYMED 2 - Pass Details

Date: 21 May 2024
Orbit: 621 x 623 km, 97.9° (Epoch: 12 June)

Event Time Altitude Azimuth Distance (km) Brightness Sun altitude
Rises 16:38:01 0° 170° (S) 2,944 7.0 -10.1°
Reaches altitude 10° 16:40:14 10° 171° (S) 2,029 6.1 -9.7°
Maximum altitude 16:44:39 78° 255° (WSW) 651 3.5 -8.8°
Drops below altitude 10° 16:49:00 10° 342° (NNW) 2,000 6.2 -8.0°
Sets 16:51:11 0° 343° (NNW) 2,899 7.0 -7.6°
